www.pogodaiklimat.ru

Погода и климат >> Архив погоды >> Таиланд >> Lop Buri


ПОГОДА в Lop Buri

  • Прогноз погоды в Lop Buri
  • Монитор погоды в Lop Buri
  • Климат города

АРХИВ ПОГОДЫ в Lop Buri

Время (UTC), дата Ветер
(напр.,м/с)
 
Видим.   Явления Облачность Т
(С)
Тd
(С)
f
(%)
Тe
(С)
Тes
(С)
Комфортность P
(гПа)
Po
(гПа)
Тmin
(С)
Tmax
(С)
R
(мм)
R24
(мм)
S
(см)
00 10.08 ЮВ 1 7000 м дымка 9/4 600 м
[Sc Ac und Cs]
+26.6 +24.3 87 +37 +38 очень
душно
1008.8 1007.5 +26.5
03 10.08 Ю 6 10 км 8/3 600 м
[Sc As op Cs]
+32.0 +24.0 63 +44 +47 опасность
перегрева
1009.6 1008.3
06 10.08 штиль 0 12 км 8/3 600 м
[Cu med, cong Ac lent Cs]
+34.5 +24.4 56 +47 +60 опасность
перегрева
1008.2 1007.0
09 10.08 штиль 0 10 км 8/4 600 м
[Sc As op Cs]
+33.5 +24.9 61 +47 +51 опасность
перегрева
1006.4 1005.1
12 10.08 штиль 0 8000 м дымка 8/4 600 м
[Sc Ac und Cs]
+31.9 +25.7 70 +47 +47 опасность
перегрева
1006.5 1005.2 +35.1
15 10.08 СЗ 3 8000 м дымка 10/5 600 м
[Cb cap Ac As Cs]
+28.5 +23.6 75 +39 +39 очень
душно
1009.4 1008.1
18 10.08 штиль 0 7000 м дымка {гроза, дождь} 8/4 600 м
[Sc Ac As Cs]
+24.1 +22.5 91 +32 +32 очень
душно
1008.7 1007.4 15
21 10.08 штиль 0 7000 м дымка 8/4 600 м
[Sc Ac As Cs]
+25.0 +23.5 91 +34 +34 очень
душно
1008.2 1006.9
00 11.08 ЮВ 1 7000 м дымка 9/4 600 м
[Sc As op Cs]
+25.5 +24.8 96 +36 +37 очень
душно
1008.8 1007.4 +24.0
03 11.08 СЗ 1 12 км 6/3 600 м
[Cu med, cong Ac lent Cs]
+31.0 +25.5 73 +46 +56 опасность
перегрева
1009.9 1008.6
06 11.08 З 1 12 км 8/4 600 м
[Cu med, cong Ac lent Cs]
+33.0 +24.5 61 +46 +56 опасность
перегрева
1008.1 1006.8
09 11.08 штиль 0 12 км 6/3 600 м
[Cu Sc Ci fib]
+33.7 +25.1 61 +48 +54 опасность
перегрева
1006.1 1004.8
12 11.08 штиль 0 8000 м дымка 8/3 600 м
[Cu med, cong Ac lent Cs]
+32.5 +25.5 67 +47 +47 опасность
перегрева
1004.5 1003.2 +35.0
15 11.08 штиль 0 8000 м дымка 8/3 600 м
[Sc Ac lent Cs]
+29.9 +24.9 75 +43 +43 опасность
перегрева
1008.5 1007.2
18 11.08 штиль 0 7000 м дымка 5/3 600 м
[Sc Ac lent Cs]
+28.0 +25.4 86 +41 +41 опасность
перегрева
1009.2 1007.9
21 11.08 штиль 0 7000 м дымка 3/0
[Ci fib]
+26.5 +24.2 87 +37 +37 очень
душно
1008.5 1007.1
00 12.08 ЮВ 1 9000 м дымка 8/1 600 м
[Cu hum Ac lent Cs]
+26.0 +24.4 91 +36 +37 очень
душно
1009.3 1008.0 +25.9
03 12.08 Ю 2 10 км 5/3 600 м
[Cu hum Ac lent Ci fib]
+31.0 +24.6 69 +44 +53 опасность
перегрева
1010.0 1008.7
06 12.08 З 2 10 км 6/3 600 м
[Cu med, cong Ac lent Cs]
+33.8 +22.1 51 +43 +55 опасность
перегрева
1008.6 1007.3
09 12.08 СЗ 2 10 км 5/3 600 м
[Cu med, cong Ac lent Cs]
+34.8 +24.5 55 +47 +52 опасность
перегрева
1005.9 1004.6
12 12.08 штиль 0 9000 м дымка 5/3 600 м
[Cu med, cong Ac lent Cs]
+32.0 +26.1 71 +48 +48 опасность
перегрева
1005.5 1004.2 +34.9
15 12.08 штиль 0 8000 м дымка 5/3 600 м
[Cu med, cong Ac lent Cs]
+30.0 +26.2 80 +45 +45 опасность
перегрева
1008.5 1007.2
18 12.08 штиль 0 8000 м дымка 6/3 600 м
[Sc Ac und Cs]
+29.5 +27.0 86 +46 +46 опасность
перегрева
1008.8 1007.5
21 12.08 штиль 0 8000 м дымка 4/1 600 м
[Sc Ac lent Cs]
+28.3 +26.5 90 +44 +44 опасность
перегрева
1008.1 1006.8
00 13.08 Ю 2 8000 м дымка 4/1 600 м
[Cu hum Ac lent Cs]
+27.8 +26.2 91 +42 +43 опасность
перегрева
1008.7 1007.4 +27.4
03 13.08 ЮЗ 3 12 км 5/3 600 м
[Cu hum Ac lent Cs]
+31.5 +25.1 69 +45 +53 опасность
перегрева
1009.8 1008.5
06 13.08 штиль 0 12 км 4/3 600 м
[Cu hum Ac lent Cs]
+34.0 +24.7 58 +47 +66 опасность
перегрева
1008.3 1007.0
09 13.08 С 1 12 км 4/3 600 м
[Cu hum Ac lent Cs]
+35.1 +25.9 59 +51 +56 опасность
перегрева
1005.8 1004.5
12 13.08 штиль 0 10 км 6/3 600 м
[Cu hum Ac lent Cs]
+33.2 +26.1 66 +49 +49 опасность
перегрева
1006.2 1004.9 +35.6
15 13.08 штиль 0 8000 м дымка 6/3 600 м
[Cu hum Ac lent Cs]
+31.5 +26.6 75 +48 +48 опасность
перегрева
1009.1 1007.8
18 13.08 Ю 1 8000 м дымка 4/1 600 м
[Cu hum Ac lent Cs]
+29.5 +26.7 85 +46 +46 опасность
перегрева
1009.1 1007.8
21 13.08 штиль 0 8000 м дымка 3/0
[Ac lent Cs]
+28.4 +25.7 85 +42 +42 опасность
перегрева
1008.1 1006.8
00 14.08 Ю 3 10 км дымка 5/3 600 м
[Cu hum Ac lent Cs]
+28.5 +25.5 84 +42 +43 опасность
перегрева
1015.8 1014.5 +27.7
03 14.08 В 1 12 км 5/3 600 м
[Cu hum Ac lent Cs]
+32.0 +24.9 66 +45 +56 опасность
перегрева
1010.0 1008.7
06 14.08 З 1 12 км 8/4 600 м
[Cu med, cong Ac lent Cs]
+34.1 +25.6 61 +49 +59 опасность
перегрева
1008.0 1006.7
09 14.08 штиль 0 12 км 6/4 600 м
[Cu med, cong Ac lent Cs]
+35.5 +25.0 55 +49 +54 опасность
перегрева
1005.2 1003.9
12 14.08 штиль 0 10 км 10/5 600 м
[Cb cap Ac lent Cs]
+33.0 +26.8 70 +51 +51 опасность
перегрева
1006.1 1004.8 +35.9
15 14.08 Ю 2 8000 м зарница 10/5 600 м
[Cb cap Ac und Cs]
+29.9 +25.4 77 +44 +44 опасность
перегрева
1008.7 1007.4
18 14.08 штиль 0 7000 м дымка 6/4 600 м
[Sc Ac lent Cs]
+28.9 +26.1 85 +44 +44 опасность
перегрева
1008.3 1007.0
21 14.08 штиль 0 7000 м дымка 6/4 600 м
[Sc Ac lent Cs]
+28.9 +26.1 85 +44 +44 опасность
перегрева
1008.3 1007.0
00 15.08 Ю 3 7000 м дымка 8/4 600 м
[Sc Ac lent Cs]
+27.5 +25.7 90 +41 +41 опасность
перегрева
1007.4 1006.0 +27.2
03 15.08 Ю 3 9000 м дымка 10/8 600 м
[Cu Sc Ac und Cs]
+30.8 +26.6 78 +47 +49 опасность
перегрева
1008.3 1007.0
06 15.08 ЮЗ 2 9000 м мгла 9/6 600 м
[Cu med, cong Ac und Cs]
+33.1 +24.3 60 +45 +51 опасность
перегрева
1006.8 1005.5
09 15.08 Ю 5 9000 м дымка 9/8 600 м
[Cu Sc Ac und Cs]
+32.8 +25.8 67 +48 +49 опасность
перегрева
1004.1 1002.8
12 15.08 Ю 2 8000 м дымка 8/5 600 м
[Sc Ac und Cs]
+29.8 +25.4 77 +44 +44 опасность
перегрева
1005.7 1004.4 +34.6
15 15.08 ЮВ 1 6000 м гроза, ливневой дождь 10/8 600 м
[Cb cap Ac As Cs]
+26.5 +25.1 92 +38 +38 очень
душно
1008.6 1007.2 6
18 15.08 штиль 0 7000 м дымка {гроза} 10/5 600 м
[Sc Ac As Cs]
+25.9 +25.0 95 +37 +37 очень
душно
1007.4 1006.1 4
21 15.08 Ю 1 7000 м дымка 5/3 600 м
[Sc Ac und Cs]
+25.3 +24.4 95 +35 +35 очень
душно
1005.6 1004.3
00 16.08 Ю 2 8000 м дымка 10/5 600 м
[Sc Ac As Cs]
+25.3 +24.4 95 +35 +36 очень
душно
1006.7 1005.4 +25.0 9
03 16.08 ЮВ 4 9000 м дымка 10/5 600 м
[Cu Sc Ac As Cs]
+28.0 +25.1 84 +40 +43 очень
душно
1007.8 1006.5
06 16.08 ЮВ 2 10 км 9/6 600 м
[Cu Sc Ac As Cs]
+32.5 +25.8 68 +48 +53 опасность
перегрева
1005.6 1004.4
09 16.08 Ю 2 10 км 9/4 600 м
[Cu med, cong As op Cs]
+33.0 +24.5 61 +46 +48 опасность
перегрева
1003.0 1001.7
12 16.08 СВ 3 5000 м гроза, ливневой дождь 10/8 300 м
[Cb cap Ac As]
+24.5 +23.0 91 +32 +32 очень
душно
1005.0 1003.6 +33.0 50
15 16.08 штиль 0 6000 м слабый дождь {гроза} 10/6 600 м
[Cu Sc Ac As]
+24.9 +24.0 95 +34 +34 очень
душно
1006.9 1005.6 3
18 16.08 штиль 0 7000 м дымка {гроза, дождь} 10/3 600 м
[Cu med, cong Ac As Cs]
+25.5 +24.8 96 +36 +36 очень
душно
1006.1 1004.8 1
21 16.08 штиль 0 7000 м дымка 9/3 600 м
[Cu med, cong Ac lent Cs]
+25.5 +24.8 96 +36 +36 очень
душно
1004.4 1003.1

 

Местоположение метеостанции Lop Buri (Таиланд): широта 14.80 долгота 100.61 высота над уровнем моря 11 м.

В архиве по умолчанию представлена погода в Lop Buri за последнюю неделю. Архивные данные за месяц целиком и за предыдущие месяцы, начиная с января 2011 года, Вы можете получить, выбрав интересующий диапазон дат из раскрывающегося списка и нажав кнопку "Ввод!".

Внимание! Время в таблицах - всемирное. Для получения местного времени необходимо прибавить поправку, которая в Lop Buri равна 7 ч.

Смотрите также архив погоды в соседних городах и на ближайших метеорологических станциях:

Погода в Ayutthaya (Таиланд) (33 км)
Погода в Laemchabang (Таиланд) (43 км)
Погода в Saraburi (Таиланд) (46 км)
Погода в Chainat Agromet (Таиланд) (60 км)
Погода в Takfa Agromet (Таиланд) (62 км)
Погода в Suphan Buri (Таиланд) (63 км)
Погода в Pathumthani (Таиланд) (78 км)
Погода в Pakchong Agromet (Таиланд) (79 км)
Погода в Bua Chum (Таиланд) (81 км)
Погода в Uthai Thani (Таиланд) (89 км)

Пояснения к столбцам:

Ветер - указаны скорость ветра в м/с - средняя за 10 мин, порывы в срок и между сроками (в фигурных скобках) и направление, откуда дует ветер: С - северный, СВ - северо-восточный, В - восточный, ЮВ - юго-восточный, Ю - южный, ЮЗ - юго-западный, З - западный, СЗ - северо-западный.
Видимость - горизонтальная дальность видимости в метрах или километрах. При видимости от 1 до 10 км при отсутствии осадков обычно наблюдается дымка, при ухудшении видимости до 1 км и менее - туман. В сухую погоду видимость может ухудшаться дымом, пылью или мглою.
Явления - указаны атмосферные явления, наблюдавшиеся в срок или в последний час перед сроком; фигурными скобками обозначены явления, наблюдавшиеся между сроками (за 1-3 часа до срока); квадратными скобками обозначены град или гололедные отложения с указанием их диаметра в мм.
Облачность - указаны через наклонную черту общая и нижняя облачность в баллах и высота нижней границы облаков в метрах; квадратными скобками обозначены формы облаков: Ci - перистые, Cs - перисто-слоистые, Cc - перисто-кучевые, Ac - высококучевые, As - высокослоистые, Sc - слоисто-кучевые, Ns - слоисто-дождевые, Cu - кучевые, Cb - кучево-дождевые. Подробнее классификацию облаков см. в Атласе облаков (PDF).
T - Температура воздуха - температура, измеренная на высоте 2 м над землей.
Td - Температура точки росы - температура, при понижении до которой содержащийся в воздухе водяной пар достигнет насыщения.
f - Относительная влажность воздуха - влажноcть воздуха, измеренная на высоте 2 м над землей.
Te - Эффективная температура - температура, которую ощущает одетый по сезону человек в тени. Характеристика душности погоды. При расчете учитывается влияние влажности воздуха и скорости ветра на теплоощущения человека.
Tes - Эффективная температура на солнце - температура, которую ощущает человек, с поправкой на солнечный нагрев. Характеристика знойности погоды. Зависит от высоты солнца над горизонтом, облачности и скорости ветра. Ночью, в пасмурную погоду, а также при ветре 12 м/с и более поправка равна нулю.
P - Атмосферное давление - приведенное к уровню моря атмосферное давление.
Po - Атмосферное давление - измеренное на уровне метеостанции атмосферное давление.
Tmin - Минимальная температура - минимум температуры воздуха на высоте 2 м над землей.
Tmax - Максимальная температура - максимум температуры воздуха на высоте 2 м над землей.
R - Количество осадков - Количество выпавших осадков за период времени, мм. При наведении курсора мыши на число - период времени, за который выпало указанное количество осадков.
R24 - Количество осадков - Количество выпавших осадков за 24 часа, мм.
S - Снежный покров - Высота снежного покрова, см. При наведении курсора мыши на число - состояние снежного покрова и степень покрытия местности в баллах.